User: anonymous   Login
Location: Fiddletown
(38.4917°N, 120.6633°W)
Time: 09:27:41
(UTC-08:00)
Language:

Envisat - Orbit

View from above orbital plane
View from above orbital plane
View from above satellite
View from above satellite

Ground track
Ground track

The orbit data is extracted from the following two-line orbital elements,

1 27386U 02009A   17024.13317956 -.00000020  00000-0  73243-5 0  9993
2 27386  98.2529  75.2735 0001075  76.8509 283.2799 14.37886668780372
Epoch (UTC): 24 January 2017 03:11:46
Eccentricity: 0.0001075
inclination: 98.2529°
perigee height: 765 km
apogee height: 766 km
right ascension of ascending node: 75.2735°
argument of perigee: 76.8509°
revolutions per day: 14.37886668
mean anomaly at epoch: 283.2799°
orbit number at epoch: 78037

The dashed part of the orbit path shows where the satellite is in the earth's shadow,  

DLR